Starlink 6048

operational
NORAD ID: 56459 Int'l Des: 2023-064 Owner: SPXS Country: US Constellation: starlink
LEOCIRCULAR

Starlink 6048について

説明を読み込み中...

リアルタイム位置

3D地球を読み込み中...

次回通過

高度履歴

Altitude vs Time

uPlot chart will show altitude changes over time

軌道要素

1 56459U 23064M 26035.47236462 -.00101847 00000-0 -86607-2 0 9996
2 56459 70.0093 228.0814 0002478 189.9867 170.1244 14.98294689150267
Epoch: Feb 4, 2026 • Age: 17 hours

現在のステータス

高度 585.3 km
速度 7.57 km/s
衛星直下点 -31.84°S, 5.74°E
打ち上げ日 May 10, 2023
運用期間 2.7 years
タイプ internet

技術仕様

分類 Payload
質量 305.00 kg
乾燥質量 290.00 kg
総質量 305.00 kg
長さ 0.20 m
直径 2.80 m
スパン 9.00 m
形状 Box + pan
製造者 SPXS
バスタイプ Starlink
フェーズステータス In Orbit
所有者/国 SPXS/US

大規模コンステレーション

Loading constellations...